Regional Weather Roundup
Issued by NWS Midland/Odessa, TX

Skip options and go directly to product.
Home | Oldest Version | Previous Version | Current Version | All | Graphics & Text | Save Text | Print | Product List | Glossary On

Skip product version selection by date and time.   
467
ASUS44 KMAF 280810
RWRMAF
MIDLAND AREA WEATHER ROUNDUP
NATIONAL WEATHER SERVICE MIDLAND TX
300 AM CDT THU JUL 28 2016

...IN SOUTHWEST TEXAS AND SOUTHEAST NEW MEXICO...

CITY           SKY/WX    TMP DP  RH WIND       PRES   REMARKS
ALPINE         CLEAR     71  62  73 CALM      30.19S
ANDREWS        FAIR      76  65  68 S3        30.07S
ARTESIA        CLEAR     79  57  47 N3        30.10S
BIG SPRING     CLEAR     78  67  69 S6        30.05F
CARLSBAD       CLEAR     77  60  55 N5        30.05S
DRYDEN           N/A     76  69  79 NE7       29.99R
FORT STOCKTON  CLEAR     76  66  71 S8        30.04R
GUAD PASS      CLOUDY    73  53  49 NE12      30.22S
HOBBS          CLEAR     75  61  60 NE9       30.11S
MARFA          CLEAR     64  55  72 N8        30.18R
MIDLAND AIRPK  CLEAR     78  67  68 S6        30.05F
MIDLAND INTL   CLEAR     78  67  68 S7        30.05R
ODESSA         CLOUDY    78  67  68 S8        30.06S
PECOS          CLEAR     79  64  60 E6        30.01R
PRESIDIO       FAIR      82  61  48 NE6       29.99F
SEMINOLE       PTCLDY    74  61  63 NE8       30.08F
SNYDER           N/A     73  67  80 S3        30.02F
WINK           CLOUDY    78  66  66 SE8       30.02R
$$
...OTHER STATIONS IN TEXAS...

CITY           SKY/WX    TMP DP  RH WIND       PRES   REMARKS
ABILENE        CLEAR     75  69  81 S8        29.98S
AMARILLO       PTCLDY    68  58  70 N12       30.10R
AUSTIN         MOCLDY    74  73  97 CALM      29.97S
BROWNSVILLE    CLOUDY    83  78  85 SE15      29.93S
CORPUS CHRISTI CLOUDY    82  79  90 S8        29.93F
DALLAS FTW     PTCLDY    80  72  76 S7        29.92S
DEL RIO        CLEAR     76  73  91 E3        29.94S
EL PASO        PTCLDY    81  60  48 N3        30.07S
HOUSTON INT    CLOUDY    81  77  88 SW3       29.96S
LUBBOCK        CLOUDY    70  62  76 SW7       30.05F
SAN ANGELO     PTCLDY    76  67  73 S5        30.00S
SAN ANTONIO    MOCLDY    76  72  87 CALM      29.98
WACO           CLOUDY    79  71  76 S12       29.96S
WICHITA FALLS  NOT AVBL
$$
...OTHER LOCATIONS IN NEW MEXICO...

CITY           SKY/WX    TMP DP  RH WIND       PRES   REMARKS
ALAMAGORDO     CLEAR     73  55  53 SW6       30.12R
ALBUQUERQUE    PTCLDY    76  52  43 CALM      30.22R
CANNON AFB     CLEAR     67  56  67 SW1       30.15F
CLOVIS         CLEAR     63  52  67 SW6       30.14F
HOLLOMAN AFB   CLEAR     75  58  55 S2        30.10R
ROSWELL        CLEAR     77  59  53 NW5       30.11F
RUIDOSO          N/A     64  52  63 E5        30.38R
SANTA FE       CLEAR     71  50  47 SE16      30.30S
TRUTH OR CONSE CLOUDY    72  57  59 NW10      30.16S
TUCUMCARI      CLEAR     70  56  61 W8        30.14F
$$

USA.gov is the U.S. government's official web portal to all federal, state and local government web resources and services.